DW7187 Weather Reports


Display with metric or nautical units.
time (UTC)temp
F
wind
direction
speed
MPH
gust
MPH
rain 1hr
in
rain 24hr
in
rain mn
in
humidity
%
barometer
mb
20260503233016 56 203 1.0 7.0 0.00 0.00 0.00 53 1012.1
20260503232016 56 203 1.0 5.0 0.00 0.00 0.00 52 1012.1
20260503231037 57 203 1.0 4.0 0.00 0.00 0.00 52 1012.2
20260503230016 57 203 1.0 8.0 0.00 0.00 0.00 52 1012.2
20260503225016 58 180 2.0 8.0 0.00 0.00 0.00 53 1012.4
20260503224016 58 180 2.0 7.0 0.00 0.00 0.00 50 1012.4
20260503223016 58 180 2.0 13.0 0.00 0.00 0.00 48 1012.4
20260503222016 59 225 1.0 3.0 0.00 0.00 0.00 51 1012.6
20260503221016 58 225 3.0 14.0 0.00 0.00 0.00 50 1012.5
20260503220016 58 180 2.0 5.0 0.00 0.00 0.00 51 1012.6
20260503215016 58 203 1.0 3.0 0.00 0.00 0.00 51 1012.7
20260503214016 59 225 2.0 6.0 0.00 0.00 0.00 49 1012.7
20260503213036 60 225 1.0 4.0 0.00 0.00 0.00 50 1012.8
20260503212016 59 248 4.0 8.0 0.00 0.00 0.00 49 1012.7
20260503211016 60 248 1.0 3.0 0.00 0.00 0.00 52 1012.9
20260503210016 59 203 2.0 9.0 0.00 0.00 0.00 48 1012.7
20260503205016 59 203 2.0 7.0 0.00 0.00 0.00 49 1012.7
20260503204016 60 248 2.0 7.0 0.00 0.00 0.00 48 1012.8
20260503203016 61 180 2.0 9.0 0.00 0.00 0.00 50 1012.9
20260503202016 59 180 3.0 9.0 0.00 0.00 0.00 50 1013.1
20260503201016 60 248 2.0 9.0 0.00 0.00 0.00 49 1013.2
20260503200016 59 180 1.0 5.0 0.00 0.00 0.00 54 1013.4
20260503195016 60 203 3.0 12.0 0.00 0.00 0.00 51 1013.6
20260503194016 59 203 2.0 6.0 0.00 0.00 0.00 50 1013.8
20260503193036 60 203 4.0 18.0 0.00 0.00 0.00 45 1013.8
20260503192016 59 248 3.0 9.0 0.00 0.00 0.00 50 1014.1
20260503191016 59 248 2.0 8.0 0.00 0.00 0.00 48 1014.2
20260503190016 60 248 5.0 10.0 0.00 0.00 0.00 46 1014.4
20260503185016 61 203 3.0 10.0 0.00 0.00 0.00 45 1014.5
20260503184016 61 248 4.0 16.0 0.00 0.00 0.00 49 1014.7
20260503183016 60 270 4.0 11.0 0.00 0.00 0.00 45 1014.6
20260503182016 59 248 4.0 9.0 0.00 0.00 0.00 52 1014.9
20260503181116 59 248 2.0 7.0 0.00 0.00 0.00 52 1014.9
20260503180016 60 248 2.0 8.0 0.00 0.00 0.00 51 1015.1
20260503175016 59 270 6.0 14.0 0.00 0.00 0.00 47 1015.1
20260503174016 59 248 3.0 10.0 0.00 0.00 0.00 55 1015.3
20260503173016 57 270 3.0 8.0 0.00 0.00 0.00 51 1015.4
20260503172016 58 270 4.0 13.0 0.00 0.00 0.00 49 1015.6
20260503171036 58 270 5.0 12.0 0.00 0.00 0.00 50 1015.7
20260503131015 45 180 1.0 4.0 0.00 0.01 0.00 71 1017.0
20260503081017 33 0.0 0.0 0.00 0.01 0.00 95 1015.7
20260503072017 33 0.0 0.0 0.00 0.01 0.00 94 1015.7
20260503071017 33 0.0 0.0 0.00 0.01 0.00 94 1015.6
20260503070111 33 0.0 0.0 0.00 0.01 0.00 93 1015.6
20260503055017 35 0.0 0.0 0.00 0.01 0.00 90 1015.9
20260503054017 36 0.0 0.0 0.00 0.01 0.00 89 1016.1
20260503053017 36 0.0 0.0 0.00 0.01 0.00 89 1016.1
20260503052017 37 0.0 0.0 0.00 0.01 0.00 89 1016.1
20260503051017 38 0.0 0.0 0.00 0.01 0.00 88 1016.1
20260503050017 38 0.0 0.0 0.00 0.01 0.00 89 1016.0
20260503045057 38 0.0 0.0 0.00 0.01 0.00 90 1016.0
20260503044017 38 0.0 0.0 0.00 0.01 0.00 91 1016.2
20260503043017 39 0.0 0.0 0.00 0.01 0.00 90 1016.1
20260503042017 39 0.0 0.0 0.00 0.01 0.00 90 1016.1
20260503041037 39 0.0 0.0 0.00 0.01 0.00 89 1016.2
20260503040017 39 0.0 0.0 0.00 0.01 0.01 89 1016.2
20260503035016 39 0.0 0.0 0.00 0.01 0.01 89 1016.3
20260503034016 39 0.0 0.0 0.00 0.01 0.01 89 1016.2
20260503033016 39 0.0 0.0 0.00 0.01 0.01 89 1016.2
20260503032016 39 0.0 0.0 0.00 0.01 0.01 90 1016.3
20260503031016 38 0.0 0.0 0.00 0.01 0.01 90 1016.4
20260503030016 38 0.0 0.0 0.00 0.01 0.01 90 1016.4
20260503025016 38 0.0 0.0 0.00 0.01 0.01 90 1016.4
20260503024036 38 0.0 0.0 0.00 0.01 0.01 90 1016.5
20260503023016 38 0.0 0.0 0.00 0.01 0.01 91 1016.5
20260503022016 38 0.0 0.0 0.00 0.01 0.01 91 1016.6
20260503021016 38 0.0 0.0 0.00 0.01 0.01 90 1016.5
20260503020036 38 0.0 0.0 0.00 0.01 0.01 90 1016.6
20260503015016 38 0.0 0.0 0.00 0.01 0.01 90 1016.5
20260503014016 38 0.0 0.0 0.00 0.01 0.01 89 1016.5
20260503013016 38 0.0 0.0 0.00 0.01 0.01 88 1016.6
20260503012036 39 0.0 0.0 0.00 0.01 0.01 87 1016.5
20260503011016 39 0.0 0.0 0.00 0.01 0.01 87 1016.5
20260503010016 40 0.0 0.0 0.00 0.01 0.01 86 1016.5
20260503005036 40 0.0 0.0 0.00 0.01 0.01 85 1016.5
20260503004016 40 0.0 0.0 0.00 0.01 0.01 84 1016.4
20260503003016 41 0.0 0.0 0.00 0.01 0.01 84 1016.4
20260503002016 41 0.0 0.0 0.00 0.01 0.01 82 1016.3
20260503001016 41 0.0 0.0 0.00 0.01 0.01 81 1016.2
20260503000016 41 0.0 1.0 0.00 0.01 0.01 76 1016.2
20260502235016 42 0.0 0.0 0.00 0.01 0.01 74 1016.3
20260502234016 42 0.0 2.0 0.00 0.01 0.01 73 1016.3